• In Italy
  • List of Countries
  • For 7 days
  • Water Temperature
  • Satellite Maps
  • Weather Map
  • Weather Widgets
  • user-avatar
    Login

    Hourly Weather Vytropovschina

    Today, 21 April, Saturday

    Time Temperature Precipitation Wind Pressure Humidity
    00:00 +10°C° 0 mm 4 mps 743 mmHg 78%
    01:00 +10°C° 0 mm 4 mps 742 mmHg 78%
    02:00 +8°C° 0 mm 4 mps 741 mmHg 78%
    03:00 +8°C° 0 mm 5 mps 740 mmHg 77%
    04:00 +8°C° 0 mm 5 mps 740 mmHg 75%
    05:00 +8°C° 0 mm 5 mps 739 mmHg 74%
    06:00 +10°C° 0 mm 6 mps 738 mmHg 71%
    07:00 +11°C° 0 mm 7 mps 737 mmHg 68%
    08:00 +12°C° 0 mm 7 mps 736 mmHg 65%
    09:00 +15°C° 0 mm 8 mps 736 mmHg 63%
    10:00 +16°C° 0 mm 8 mps 735 mmHg 60%
    11:00 +18°C° 0 mm 9 mps 735 mmHg 58%
    12:00 +18°C° 0 mm 9 mps 735 mmHg 53%
    13:00 +18°C° 0 mm 10 mps 735 mmHg 49%
    14:00 +18°C° 0 mm 10 mps 735 mmHg 44%
    15:00 +17°C° 0 mm 9 mps 735 mmHg 45%
    16:00 +16°C° 0 mm 9 mps 736 mmHg 46%
    17:00 +15°C° 0 mm 8 mps 736 mmHg 47%
    18:00 +12°C° 0 mm 7 mps 737 mmHg 50%
    19:00 +11°C° 0 mm 6 mps 737 mmHg 53%
    20:00 +9°C° 0 mm 5 mps 738 mmHg 57%
    21:00 +8°C° 0 mm 4 mps 738 mmHg 60%
    22:00 +7°C° 0 mm 4 mps 738 mmHg 63%
    23:00 +7°C° 0 mm 3 mps 739 mmHg 66%

    Tomorrow, 22 April, Sunday

    Time Temperature Precipitation Wind Pressure Humidity
    00:00 +6°C° 0 mm 4 mps 739 mmHg 70%
    01:00 +6°C° 0 mm 4 mps 739 mmHg 74%
    02:00 +5°C° 0 mm 4 mps 739 mmHg 78%
    03:00 +5°C° 0 mm 4 mps 739 mmHg 80%
    04:00 +5°C° 0 mm 4 mps 739 mmHg 81%
    05:00 +4°C° 0 mm 4 mps 739 mmHg 83%
    06:00 +6°C° 0 mm 5 mps 739 mmHg 76%
    07:00 +7°C° 0 mm 5 mps 739 mmHg 70%
    08:00 +8°C° 0 mm 5 mps 739 mmHg 63%
    09:00 +9°C° 0 mm 6 mps 739 mmHg 57%
    10:00 +11°C° 0 mm 7 mps 739 mmHg 50%
    11:00 +12°C° 0 mm 8 mps 739 mmHg 44%
    12:00 +13°C° 0 mm 8 mps 739 mmHg 42%
    13:00 +13°C° 0 mm 8 mps 739 mmHg 40%
    14:00 +13°C° 0 mm 8 mps 739 mmHg 39%
    15:00 +14°C° 0 mm 7 mps 739 mmHg 40%
    16:00 +14°C° 0 mm 7 mps 739 mmHg 42%
    17:00 +13°C° 0 mm 6 mps 739 mmHg 43%
    18:00 +12°C° 0 mm 5 mps 739 mmHg 48%
    19:00 +10°C° 0 mm 4 mps 740 mmHg 52%
    20:00 +9°C° 0 mm 3 mps 740 mmHg 57%
    21:00 +8°C° 0 mm 3 mps 740 mmHg 60%
    22:00 +7°C° 0 mm 2 mps 740 mmHg 63%
    23:00 +6°C° 0 mm 2 mps 741 mmHg 67%

    Day after tomorrow, 23 April, Monday

    Time Temperature Precipitation Wind Pressure Humidity
    00:00 +5°C° 0 mm 2 mps 741 mmHg 70%
    01:00 +4°C° 0 mm 2 mps 741 mmHg 73%
    02:00 +4°C° 0 mm 2 mps 741 mmHg 76%
    03:00 +3°C° 0 mm 2 mps 741 mmHg 79%
    04:00 +3°C° 0 mm 2 mps 741 mmHg 82%
    05:00 +2°C° 0 mm 2 mps 742 mmHg 85%
    06:00 +5°C° 0 mm 1 mps 742 mmHg 80%
    07:00 +6°C° 0 mm 1 mps 742 mmHg 74%
    08:00 +8°C° 0 mm 1 mps 742 mmHg 69%
    09:00 +10°C° 0 mm 1 mps 742 mmHg 63%
    10:00 +12°C° 0 mm 1 mps 742 mmHg 56%
    11:00 +12°C° 0 mm 0 mps 742 mmHg 50%
    12:00 +14°C° 0 mm 1 mps 742 mmHg 47%
    13:00 +14°C° 0 mm 1 mps 741 mmHg 44%
    14:00 +15°C° 0 mm 2 mps 741 mmHg 41%
    15:00 +15°C° 0 mm 2 mps 741 mmHg 42%
    16:00 +15°C° 0 mm 2 mps 740 mmHg 42%
    17:00 +15°C° 0 mm 2 mps 740 mmHg 42%
    18:00 +14°C° 0 mm 2 mps 739 mmHg 47%
    19:00 +11°C° 0 mm 3 mps 739 mmHg 52%
    20:00 +10°C° 0 mm 3 mps 739 mmHg 57%
    21:00 +10°C° 0.2 mm 3 mps 738 mmHg 61%
    22:00 +8°C° 0.2 mm 4 mps 738 mmHg 65%
    23:00 +8°C° 0.2 mm 4 mps 738 mmHg 68%

    24 April, Tuesday

    Time Temperature Precipitation Wind Pressure Humidity
    00:00 +7°C° 0.4 mm 4 mps 737 mmHg 73%
    01:00 +7°C° 0.4 mm 5 mps 737 mmHg 78%
    02:00 +7°C° 0.4 mm 5 mps 737 mmHg 83%
    03:00 +7°C° 0.2 mm 4 mps 736 mmHg 84%
    04:00 +6°C° 0.2 mm 4 mps 736 mmHg 86%
    05:00 +6°C° 0.2 mm 4 mps 736 mmHg 88%
    06:00 +7°C° 0.1 mm 4 mps 736 mmHg 88%
    07:00 +7°C° 0.1 mm 4 mps 736 mmHg 88%
    08:00 +7°C° 0.1 mm 4 mps 736 mmHg 89%
    09:00 +8°C° 0 mm 5 mps 736 mmHg 85%
    10:00 +8°C° 0 mm 5 mps 737 mmHg 82%
    11:00 +9°C° 0 mm 5 mps 737 mmHg 78%
    12:00 +9°C° 0.1 mm 5 mps 737 mmHg 73%
    13:00 +10°C° 0.1 mm 6 mps 737 mmHg 68%
    14:00 +11°C° 0.1 mm 6 mps 737 mmHg 63%
    15:00 +10°C° 0 mm 6 mps 737 mmHg 63%
    16:00 +10°C° 0 mm 6 mps 737 mmHg 63%
    17:00 +10°C° 0 mm 5 mps 737 mmHg 63%
    18:00 +9°C° 0.1 mm 5 mps 737 mmHg 69%
    19:00 +8°C° 0.1 mm 4 mps 737 mmHg 75%
    20:00 +8°C° 0.1 mm 3 mps 737 mmHg 81%
    21:00 +7°C° 0 mm 3 mps 737 mmHg 84%
    22:00 +7°C° 0 mm 3 mps 737 mmHg 88%
    23:00 +5°C° 0 mm 3 mps 737 mmHg 91%

    25 April, Wednesday

    Time Temperature Precipitation Wind Pressure Humidity
    00:00 +5°C° 0 mm 3 mps 737 mmHg 92%
    01:00 +6°C° 0 mm 4 mps 736 mmHg 92%
    02:00 +6°C° 0 mm 4 mps 736 mmHg 93%
    03:00 +6°C° 0.4 mm 4 mps 736 mmHg 93%
    04:00 +7°C° 0.4 mm 5 mps 736 mmHg 92%
    05:00 +7°C° 0.4 mm 5 mps 736 mmHg 92%
    06:00 +8°C° 0.1 mm 5 mps 736 mmHg 88%
    07:00 +8°C° 0.1 mm 5 mps 736 mmHg 83%
    08:00 +8°C° 0.1 mm 6 mps 736 mmHg 79%
    09:00 +8°C° 0.8 mm 5 mps 735 mmHg 82%
    10:00 +8°C° 0.8 mm 5 mps 735 mmHg 84%
    11:00 +7°C° 0.8 mm 4 mps 735 mmHg 87%
    12:00 +8°C° 0.4 mm 4 mps 735 mmHg 87%
    13:00 +10°C° 0.4 mm 4 mps 735 mmHg 86%
    14:00 +9°C° 0.4 mm 5 mps 734 mmHg 86%
    15:00 +9°C° 0.1 mm 5 mps 734 mmHg 82%
    16:00 +10°C° 0.1 mm 6 mps 734 mmHg 78%
    17:00 +10°C° 0.1 mm 6 mps 734 mmHg 74%
    18:00 +9°C° 0 mm 5 mps 734 mmHg 77%
    19:00 +7°C° 0 mm 4 mps 735 mmHg 79%
    20:00 +7°C° 0 mm 3 mps 735 mmHg 82%
    21:00 +7°C° 0 mm 3 mps 735 mmHg 83%
    22:00 +5°C° 0 mm 3 mps 735 mmHg 85%
    23:00 +5°C° 0 mm 3 mps 735 mmHg 86%

    26 April, Thursday

    Time Temperature Precipitation Wind Pressure Humidity
    00:00 +4°C° 0 mm 3 mps 735 mmHg 88%
    01:00 +3°C° 0 mm 3 mps 735 mmHg 90%
    02:00 +4°C° 0 mm 2 mps 735 mmHg 91%
    03:00 +3°C° 0 mm 3 mps 735 mmHg 90%
    04:00 +3°C° 0 mm 3 mps 736 mmHg 89%
    05:00 +3°C° 0 mm 3 mps 736 mmHg 88%
    06:00 +4°C° 0 mm 4 mps 736 mmHg 83%
    07:00 +5°C° 0 mm 5 mps 736 mmHg 79%
    08:00 +6°C° 0 mm 5 mps 736 mmHg 74%
    09:00 +8°C° 0 mm 6 mps 737 mmHg 66%
    10:00 +9°C° 0 mm 7 mps 737 mmHg 59%
    11:00 +10°C° 0 mm 7 mps 737 mmHg 51%
    12:00 +11°C° 0 mm 7 mps 737 mmHg 49%
    13:00 +11°C° 0 mm 7 mps 738 mmHg 47%
    14:00 +12°C° 0 mm 8 mps 738 mmHg 45%
    15:00 +12°C° 0 mm 7 mps 738 mmHg 46%
    16:00 +11°C° 0 mm 7 mps 738 mmHg 47%
    17:00 +11°C° 0 mm 6 mps 739 mmHg 49%
    18:00 +10°C° 0 mm 5 mps 739 mmHg 55%
    19:00 +8°C° 0 mm 4 mps 739 mmHg 61%
    20:00 +7°C° 0 mm 2 mps 739 mmHg 67%
    21:00 +7°C° 0 mm 2 mps 740 mmHg 71%
    22:00 +6°C° 0 mm 2 mps 740 mmHg 74%
    23:00 +6°C° 0 mm 2 mps 740 mmHg 77%
    Show more